User: anonymous   Login
Location: Unspecified
(0.0000°N, 0.0000°E)
Time: 05:58:46
(UTC+00:00)
Language:

Cosmos 1574 - Orbit

View from above orbital plane
View from above orbital plane
View from above satellite
View from above satellite

Ground track
Ground track

The orbit data is extracted from the following two-line orbital elements,

1 15055U 84062A   18267.38796640 +.00000029 +00000-0 +14226-4 0  9993
2 15055 082.9614 002.8175 0027326 003.1351 064.7318 13.74302941717800
Epoch (UTC): 24 September 2018 09:18:40
Eccentricity: 0.0027326
inclination: 82.9614°
perigee height: 964 km
apogee height: 1004 km
right ascension of ascending node: 2.8175°
argument of perigee: 3.1351°
revolutions per day: 13.74302941
mean anomaly at epoch: 64.7318°
orbit number at epoch: 71780

The dashed part of the orbit path shows where the satellite is in the earth's shadow,  

DLR